When you browse on this site, cookies collect data to enhance your experience and personalize the content and advertising you see.
Visit our Privacy Policy to learn more. By continuing to use the site, you agree to this use of cookies and data.
  • In Portugal
  • List of Countries
  • For 7 days
  • Water Temperature
  • Satellite Maps
  • Weather Map
  • Weather Widgets
  • user-avatar
    Login

    Hourly Weather Burgas

    Today, 25 May, Saturday

    Time Temperature Precipitation Wind Pressure Humidity
    00:00 +14°C° 0 mm 3 mps 755 mmHg 88%
    01:00 +13°C° 0 mm 3 mps 755 mmHg 88%
    02:00 +13°C° 0 mm 2 mps 755 mmHg 88%
    03:00 +12°C° 0 mm 3 mps 755 mmHg 88%
    04:00 +12°C° 0 mm 3 mps 755 mmHg 89%
    05:00 +12°C° 0 mm 3 mps 756 mmHg 89%
    06:00 +14°C° 0 mm 4 mps 756 mmHg 83%
    07:00 +17°C° 0 mm 4 mps 756 mmHg 77%
    08:00 +19°C° 0 mm 4 mps 756 mmHg 72%
    09:00 +20°C° 0.1 mm 4 mps 757 mmHg 67%
    10:00 +22°C° 0.1 mm 4 mps 757 mmHg 63%
    11:00 +23°C° 0.1 mm 4 mps 757 mmHg 58%
    12:00 +23°C° 0.6 mm 4 mps 757 mmHg 59%
    13:00 +25°C° 0.6 mm 3 mps 757 mmHg 60%
    14:00 +25°C° 0.6 mm 3 mps 756 mmHg 61%
    15:00 +25°C° 0.5 mm 3 mps 757 mmHg 62%
    16:00 +25°C° 0.5 mm 3 mps 757 mmHg 64%
    17:00 +24°C° 0.5 mm 2 mps 757 mmHg 66%
    18:00 +23°C° 0.1 mm 2 mps 757 mmHg 70%
    19:00 +20°C° 0.1 mm 2 mps 757 mmHg 75%
    20:00 +19°C° 0.1 mm 1 mps 757 mmHg 79%
    21:00 +19°C° 0 mm 1 mps 757 mmHg 81%
    22:00 +17°C° 0 mm 2 mps 757 mmHg 83%
    23:00 +16°C° 0 mm 2 mps 758 mmHg 85%

    Tomorrow, 26 May, Sunday

    Time Temperature Precipitation Wind Pressure Humidity
    00:00 +16°C° 0 mm 2 mps 758 mmHg 86%
    01:00 +16°C° 0 mm 2 mps 758 mmHg 86%
    02:00 +16°C° 0 mm 2 mps 758 mmHg 86%
    03:00 +15°C° 0 mm 2 mps 759 mmHg 86%
    04:00 +14°C° 0 mm 3 mps 759 mmHg 86%
    05:00 +14°C° 0 mm 3 mps 759 mmHg 86%
    06:00 +17°C° 0 mm 3 mps 759 mmHg 80%
    07:00 +19°C° 0 mm 2 mps 759 mmHg 74%
    08:00 +21°C° 0 mm 2 mps 760 mmHg 68%
    09:00 +24°C° 0 mm 2 mps 760 mmHg 62%
    10:00 +25°C° 0 mm 1 mps 760 mmHg 57%
    11:00 +27°C° 0 mm 1 mps 760 mmHg 51%
    12:00 +27°C° 0 mm 1 mps 760 mmHg 50%
    13:00 +28°C° 0 mm 1 mps 760 mmHg 49%
    14:00 +28°C° 0 mm 2 mps 760 mmHg 48%
    15:00 +28°C° 0 mm 2 mps 760 mmHg 50%
    16:00 +28°C° 0 mm 2 mps 759 mmHg 52%
    17:00 +27°C° 0 mm 3 mps 759 mmHg 55%
    18:00 +25°C° 0 mm 3 mps 759 mmHg 62%
    19:00 +22°C° 0 mm 3 mps 760 mmHg 70%
    20:00 +20°C° 0 mm 2 mps 760 mmHg 78%
    21:00 +19°C° 0 mm 2 mps 760 mmHg 80%
    22:00 +19°C° 0 mm 2 mps 760 mmHg 83%
    23:00 +19°C° 0 mm 1 mps 760 mmHg 85%

    Day after tomorrow, 27 May, Monday

    Time Temperature Precipitation Wind Pressure Humidity
    00:00 +19°C° 0 mm 1 mps 760 mmHg 86%
    01:00 +18°C° 0 mm 1 mps 760 mmHg 87%
    02:00 +16°C° 0 mm 0 mps 760 mmHg 87%
    03:00 +16°C° 0 mm 0 mps 760 mmHg 88%
    04:00 +16°C° 0 mm 0 mps 760 mmHg 88%
    05:00 +16°C° 0 mm 0 mps 760 mmHg 88%
    06:00 +18°C° 0 mm 0 mps 760 mmHg 81%
    07:00 +20°C° 0 mm 0 mps 761 mmHg 74%
    08:00 +22°C° 0 mm 0 mps 761 mmHg 67%
    09:00 +25°C° 0 mm 2 mps 761 mmHg 62%
    10:00 +26°C° 0 mm 3 mps 761 mmHg 56%
    11:00 +27°C° 0 mm 4 mps 761 mmHg 51%
    12:00 +27°C° 0 mm 4 mps 760 mmHg 51%
    13:00 +27°C° 0 mm 5 mps 760 mmHg 51%
    14:00 +27°C° 0 mm 5 mps 760 mmHg 51%
    15:00 +26°C° 0 mm 5 mps 760 mmHg 54%
    16:00 +26°C° 0 mm 5 mps 759 mmHg 58%
    17:00 +25°C° 0 mm 5 mps 759 mmHg 61%
    18:00 +22°C° 0 mm 4 mps 759 mmHg 70%
    19:00 +20°C° 0 mm 4 mps 759 mmHg 78%
    20:00 +18°C° 0 mm 3 mps 759 mmHg 87%
    21:00 +17°C° 0 mm 2 mps 760 mmHg 89%
    22:00 +17°C° 0 mm 2 mps 760 mmHg 90%
    23:00 +16°C° 0 mm 2 mps 760 mmHg 92%

    28 May, Tuesday

    Time Temperature Precipitation Wind Pressure Humidity
    00:00 +16°C° 0 mm 2 mps 759 mmHg 92%
    01:00 +16°C° 0 mm 2 mps 759 mmHg 92%
    02:00 +16°C° 0 mm 1 mps 759 mmHg 92%
    03:00 +16°C° 0 mm 1 mps 758 mmHg 92%
    04:00 +15°C° 0 mm 1 mps 758 mmHg 92%
    05:00 +15°C° 0 mm 1 mps 758 mmHg 92%
    06:00 +17°C° 0 mm 2 mps 758 mmHg 85%
    07:00 +20°C° 0 mm 2 mps 758 mmHg 77%
    08:00 +23°C° 0 mm 2 mps 758 mmHg 70%
    09:00 +25°C° 0 mm 2 mps 758 mmHg 64%
    10:00 +26°C° 0 mm 2 mps 757 mmHg 58%
    11:00 +28°C° 0 mm 3 mps 757 mmHg 53%
    12:00 +29°C° 0 mm 3 mps 757 mmHg 51%
    13:00 +30°C° 0 mm 4 mps 756 mmHg 50%
    14:00 +32°C° 0 mm 4 mps 756 mmHg 49%
    15:00 +30°C° 0 mm 4 mps 756 mmHg 53%
    16:00 +29°C° 0 mm 4 mps 755 mmHg 56%
    17:00 +28°C° 0 mm 4 mps 755 mmHg 60%
    18:00 +26°C° 0 mm 3 mps 755 mmHg 67%
    19:00 +24°C° 0 mm 3 mps 755 mmHg 74%
    20:00 +21°C° 0 mm 2 mps 755 mmHg 81%
    21:00 +21°C° 0 mm 2 mps 755 mmHg 78%
    22:00 +20°C° 0 mm 2 mps 755 mmHg 74%
    23:00 +20°C° 0 mm 2 mps 755 mmHg 70%

    29 May, Wednesday

    Time Temperature Precipitation Wind Pressure Humidity
    00:00 +20°C° 0 mm 2 mps 755 mmHg 65%
    01:00 +19°C° 0 mm 3 mps 755 mmHg 59%
    02:00 +19°C° 0 mm 3 mps 755 mmHg 53%
    03:00 +18°C° 0 mm 3 mps 755 mmHg 59%
    04:00 +18°C° 0 mm 3 mps 755 mmHg 64%
    05:00 +17°C° 0 mm 3 mps 755 mmHg 70%
    06:00 +19°C° 0 mm 3 mps 755 mmHg 67%
    07:00 +21°C° 0 mm 3 mps 756 mmHg 64%
    08:00 +25°C° 0 mm 3 mps 756 mmHg 61%
    09:00 +27°C° 0 mm 3 mps 756 mmHg 56%
    10:00 +28°C° 0 mm 3 mps 756 mmHg 52%
    11:00 +30°C° 0 mm 4 mps 756 mmHg 47%
    12:00 +31°C° 0 mm 3 mps 756 mmHg 46%
    13:00 +31°C° 0 mm 3 mps 756 mmHg 44%
    14:00 +33°C° 0 mm 3 mps 756 mmHg 43%
    15:00 +33°C° 0 mm 3 mps 756 mmHg 45%
    16:00 +31°C° 0 mm 3 mps 756 mmHg 47%
    17:00 +31°C° 0 mm 3 mps 756 mmHg 49%
    18:00 +29°C° 0 mm 3 mps 756 mmHg 55%
    19:00 +26°C° 0 mm 3 mps 756 mmHg 61%
    20:00 +24°C° 0 mm 3 mps 757 mmHg 67%
    21:00 +22°C° 0 mm 3 mps 757 mmHg 68%
    22:00 +21°C° 0 mm 2 mps 757 mmHg 70%
    23:00 +20°C° 0 mm 2 mps 758 mmHg 72%

    30 May, Thursday

    Time Temperature Precipitation Wind Pressure Humidity
    00:00 +20°C° 0 mm 2 mps 758 mmHg 74%
    01:00 +19°C° 0 mm 2 mps 758 mmHg 75%
    02:00 +19°C° 0 mm 2 mps 758 mmHg 77%
    03:00 +19°C° 0 mm 2 mps 758 mmHg 78%
    04:00 +19°C° 0 mm 2 mps 759 mmHg 79%
    05:00 +19°C° 0 mm 2 mps 759 mmHg 80%
    06:00 +21°C° 0 mm 2 mps 759 mmHg 74%
    07:00 +24°C° 0 mm 2 mps 759 mmHg 69%
    08:00 +26°C° 0 mm 2 mps 759 mmHg 63%
    09:00 +28°C° 0 mm 3 mps 759 mmHg 59%
    10:00 +29°C° 0 mm 3 mps 760 mmHg 55%
    11:00 +31°C° 0 mm 3 mps 760 mmHg 51%
    12:00 +32°C° 0.3 mm 4 mps 759 mmHg 51%
    13:00 +32°C° 0.3 mm 4 mps 759 mmHg 51%
    14:00 +32°C° 0.3 mm 4 mps 759 mmHg 51%
    15:00 +30°C° 0.1 mm 4 mps 759 mmHg 53%
    16:00 +30°C° 0.1 mm 3 mps 759 mmHg 55%
    17:00 +29°C° 0.1 mm 3 mps 759 mmHg 57%
    18:00 +27°C° 0 mm 2 mps 759 mmHg 63%
    19:00 +25°C° 0 mm 1 mps 759 mmHg 69%
    20:00 +23°C° 0 mm 1 mps 759 mmHg 75%
    21:00 +23°C° 0 mm 1 mps 759 mmHg 76%
    22:00 +21°C° 0 mm 0 mps 760 mmHg 76%
    23:00 +20°C° 0 mm 0 mps 760 mmHg 77%
    Show more